Location: Toronto
(43.6672°N, 79.4170°W)
Time: 17:07:32
(UTC-04:00)

ISS - All Passes

Search period start: 22 June 2018 00:00
Search period end: 02 July 2018 00:00
Orbit: 402 x 408 km, 51.6° (Epoch: 23 June)

Date Brightness Start Highest point End Pass type
(mag) Time Alt. Az. Time Alt. Az. Time Alt. Az.
22 Jun - 09:03:42 10° SSW 09:06:39 31° SE 09:09:37 10° ENE daylight
22 Jun - 10:39:56 10° W 10:43:05 41° NNW 10:46:15 10° NE daylight
22 Jun - 12:17:38 10° NW 12:20:11 20° N 12:22:44 10° NE daylight
22 Jun - 13:54:32 10° NW 13:57:25 27° NNE 14:00:18 10° ENE daylight
22 Jun - 15:30:53 10° WNW 15:34:10 71° SW 15:37:26 10° SE daylight
23 Jun - 08:12:30 10° S 08:14:47 18° SE 08:17:04 10° E daylight
23 Jun - 09:47:42 10° WSW 09:50:58 65° NNW 09:54:15 10° NE daylight
23 Jun - 11:25:14 10° WNW 11:27:54 22° N 11:30:36 10° NE daylight
23 Jun - 13:02:29 10° NW 13:05:11 22° N 13:07:52 10° ENE daylight
23 Jun - 14:38:50 10° NW 14:42:07 67° NNE 14:45:23 10° ESE daylight
23 Jun - 16:16:04 10° W 16:18:17 17° SW 16:20:30 10° S daylight
24 Jun - 08:55:38 10° SW 08:58:55 73° SE 09:02:12 10° ENE daylight
24 Jun - 10:32:47 10° WNW 10:35:39 27° NNW 10:38:32 10° NE daylight
24 Jun - 12:10:21 10° NW 12:12:54 20° N 12:15:26 10° NE daylight
24 Jun - 13:46:49 10° NW 13:49:59 42° NNE 13:53:08 10° E daylight
24 Jun - 15:23:28 10° WNW 15:26:24 30° SW 15:29:20 10° SSE daylight
25 Jun - 08:03:49 10° SSW 08:06:55 39° SE 08:10:01 10° ENE daylight
25 Jun - 09:40:21 10° W 09:43:26 36° NNW 09:46:31 10° NE daylight
25 Jun - 11:18:03 10° NW 11:20:35 20° N 11:23:06 10° NE daylight
25 Jun - 12:54:49 10° NW 12:57:47 30° NNE 13:00:44 10° E daylight
25 Jun - 14:31:11 10° WNW 14:34:26 56° SW 14:37:39 10° SE daylight
26 Jun - 07:12:23 10° S 07:14:58 22° SE 07:17:35 10° E daylight
26 Jun - 08:48:00 10° WSW 08:51:15 54° NNW 08:54:31 10° NE daylight
26 Jun - 10:25:38 10° WNW 10:28:16 21° N 10:30:53 10° NE daylight
26 Jun - 12:02:45 10° NW 12:05:31 24° NNE 12:08:16 10° ENE daylight
26 Jun - 13:39:04 10° WNW 13:42:23 81° NNE 13:45:40 10° ESE daylight
26 Jun - 15:16:44 10° W 15:18:27 14° SW 15:20:11 10° SSW daylight
27 Jun - 06:21:45 10° SSE 06:23:06 12° SE 06:24:28 10° ESE daylight
27 Jun - 07:55:50 10° WSW 07:59:07 89° S 08:02:27 10° ENE daylight
27 Jun - 09:33:09 10° WNW 09:35:57 25° NNW 09:38:46 10° NE daylight
27 Jun - 11:10:36 10° NW 11:13:12 21° N 11:15:48 10° ENE daylight
27 Jun - 12:47:01 10° NW 12:50:14 49° NNE 12:53:27 10° ESE daylight
27 Jun - 14:23:50 10° W 14:26:34 24° SW 14:29:17 10° SSE daylight
28 Jun - 07:03:53 10° SW 07:07:04 49° SE 07:10:16 10° ENE daylight
28 Jun - 08:40:40 10° W 08:43:40 32° NNW 08:46:41 10° NE daylight
28 Jun - 10:18:20 10° NW 10:20:51 20° N 10:23:22 10° NE daylight
28 Jun - 11:54:58 10° NW 11:58:01 33° NNE 12:01:03 10° E daylight
28 Jun - 13:31:26 10° WNW 13:34:35 44° SW 13:37:44 10° SE daylight
29 Jun - 06:12:14 10° SSW 06:15:04 27° SE 06:17:54 10° ENE daylight
29 Jun - 07:48:14 10° W 07:51:26 45° NNW 07:54:38 10° NE daylight
29 Jun - 09:25:55 10° WNW 09:28:30 21° N 09:31:04 10° NE daylight
29 Jun - 11:02:54 10° NW 11:05:44 26° NNE 11:08:34 10° ENE daylight
29 Jun - 12:39:13 10° WNW 12:42:31 82° SW 12:45:48 10° SE daylight
29 Jun - 14:17:38 10° WSW 14:18:30 11° SW 14:19:22 10° SW daylight
30 Jun - 05:21:09 10° S 05:23:07 15° SE 05:25:07 10° E daylight
30 Jun - 06:55:57 10° WSW 06:59:15 75° NNW 07:02:32 10° NE daylight
30 Jun - 08:33:25 10° WNW 08:36:08 23° NNW 08:38:52 10° NE daylight
30 Jun - 10:10:45 10° NW 10:13:24 22° N 10:16:02 10° ENE daylight
30 Jun - 11:47:06 10° NW 11:50:22 58° NNE 11:53:37 10° ESE daylight
30 Jun - 13:24:08 10° W 13:26:36 20° SW 13:29:04 10° S daylight
01 Jul - 06:03:52 10° SW 06:07:07 62° SE 06:10:23 10° ENE daylight
01 Jul - 07:40:52 10° W 07:43:48 29° NNW 07:46:44 10° NE daylight
01 Jul - 09:18:29 10° NW 09:21:01 20° N 09:23:33 10° NE daylight
01 Jul - 10:55:01 10° NW 10:58:08 38° NNE 11:01:15 10° E daylight
01 Jul - 12:31:34 10° WNW 12:34:37 35° SW 12:37:38 10° SSE daylight
